Volver al catálogo

COSMOS 1903

ActivoMilitarHEO
NORAD 18701·PAYLOAD·🇷🇺 Russia

Lanzado Dec 21, 1987 desde Plesetsk Cosmodrome

Loading…

Próximos Pases (próximas 24 horas)

TLE

ActualizadoSource: Space-Track

Época: Sep 12, 2026, 19:53 UTC

1 18701U 87105A   26255.82857467  .00000086  00000-0  00000-0 0  9999
2 18701  69.0332 191.0416 4404566  92.9363 316.6355  2.00784172284436

Sigue COSMOS 1903 en tiempo real con AllMySat

Download on the App Store